Torna al catalogo

STARLINK-3546

AttivoComunicazioniVLEO
NORAD 51718·PAYLOAD·🇺🇸 United States

Lanciato Feb 21, 2022 da Cape Canaveral Space Force Station

Loading…

Prossimi Passaggi (prossime 24 ore)

TLE

AggiornatoSource: CelesTrak SupGP

Epoca: Sep 14, 2026, 22:00 UTC

1 51718C 22016E   26257.91715278 -.00026678  00000+0 -10938-2 0  2575
2 51718  53.1823 182.6648 0004326 109.4431   1.7623 15.23738126    16

Traccia STARLINK-3546 in tempo reale con AllMySat

Download on the App Store